TimeCDT,TemperatureF,Dew PointF,Humidity,Sea Level PressureIn,VisibilityMPH,Wind Direction,Wind SpeedMPH,Gust SpeedMPH,PrecipitationIn,Events,Conditions,WindDirDegrees,DateUTC
12:51 AM,48.9,30.9,50,30.01,10.0,South,10.4,-,N/A,,Mostly Cloudy,190,2012-10-09 05:51:00
1:51 AM,48.9,32.0,52,30.01,10.0,South,12.7,18.4,N/A,,Mostly Cloudy,190,2012-10-09 06:51:00
2:51 AM,48.2,32.0,54,29.99,10.0,South,10.4,-,N/A,,Overcast,190,2012-10-09 07:51:00
3:51 AM,46.9,33.1,59,30.00,10.0,SSW,9.2,-,N/A,,Mostly Cloudy,200,2012-10-09 08:51:00
4:51 AM,46.9,33.1,59,29.99,10.0,South,9.2,-,N/A,,Scattered Clouds,190,2012-10-09 09:51:00
5:51 AM,45.0,34.0,65,29.99,10.0,South,10.4,-,N/A,,Mostly Cloudy,190,2012-10-09 10:51:00
6:51 AM,44.6,33.8,66,29.98,10.0,South,11.5,20.7,N/A,,Mostly Cloudy,190,2012-10-09 11:51:00
7:51 AM,46.9,35.1,63,29.98,10.0,South,12.7,20.7,N/A,,Mostly Cloudy,190,2012-10-09 12:51:00
8:51 AM,50.0,36.0,59,29.97,10.0,South,13.8,21.9,N/A,,Mostly Cloudy,190,2012-10-09 13:51:00
9:51 AM,54.0,37.0,53,29.96,10.0,SSW,16.1,25.3,N/A,,Mostly Cloudy,210,2012-10-09 14:51:00
10:51 AM,59.0,37.0,44,29.93,10.0,SSW,17.3,31.1,N/A,,Mostly Cloudy,200,2012-10-09 15:51:00
11:51 AM,63.0,37.0,38,29.91,10.0,SSW,16.1,28.8,N/A,,Mostly Cloudy,210,2012-10-09 16:51:00
12:51 PM,64.0,37.9,38,29.87,10.0,SSW,20.7,27.6,N/A,,Mostly Cloudy,210,2012-10-09 17:51:00
1:51 PM,66.9,36.0,32,29.84,10.0,SSW,21.9,32.2,N/A,,Mostly Cloudy,210,2012-10-09 18:51:00
2:51 PM,66.0,36.0,33,29.83,10.0,SSW,20.7,33.4,N/A,,Overcast,210,2012-10-09 19:51:00
3:51 PM,64.9,36.0,34,29.83,10.0,SSW,21.9,31.1,N/A,,Overcast,210,2012-10-09 20:51:00
4:51 PM,64.9,37.0,36,29.82,10.0,SSW,18.4,26.5,N/A,,Overcast,210,2012-10-09 21:51:00
5:51 PM,64.0,37.0,37,29.82,10.0,SSW,13.8,26.5,N/A,,Overcast,210,2012-10-09 22:51:00
6:51 PM,63.0,37.9,40,29.82,10.0,SSW,11.5,21.9,N/A,,Overcast,210,2012-10-09 23:51:00
7:51 PM,63.0,39.0,41,29.81,10.0,SSW,17.3,24.2,N/A,,Overcast,210,2012-10-10 00:51:00
8:18 PM,57.2,41.0,55,29.83,10.0,NW,13.8,29.9,N/A,,Overcast,310,2012-10-10 01:18:00
8:31 PM,55.4,42.8,63,29.85,10.0,NW,23.0,29.9,N/A,,Overcast,310,2012-10-10 01:31:00
8:51 PM,53.1,39.0,59,29.87,10.0,NW,20.7,32.2,N/A,,Overcast,310,2012-10-10 01:51:00
9:51 PM,46.0,41.0,83,29.92,8.0,NW,12.7,-,0.03,Rain,Light Rain,310,2012-10-10 02:51:00
10:51 PM,44.1,39.9,85,29.93,5.0,NW,10.4,21.9,0.06,Rain,Light Rain,310,2012-10-10 03:51:00
11:05 PM,44.6,39.2,81,29.92,6.0,WNW,9.2,-,0.02,Rain,Light Rain,300,2012-10-10 04:05:00
11:31 PM,44.6,39.2,81,29.93,5.0,West,5.8,-,0.06,Rain,Light Rain,270,2012-10-10 04:31:00
11:51 PM,43.0,39.0,86,29.94,5.0,WSW,5.8,-,0.08,Rain,Light Rain,250,2012-10-10 04:51:00